TimeCST,TemperatureF,Dew PointF,Humidity,Sea Level PressureIn,VisibilityMPH,Wind Direction,Wind SpeedMPH,Gust SpeedMPH,PrecipitationIn,Events,Conditions,WindDirDegrees,DateUTC
12:15 AM,36.5,30.0,77,29.41,10.0,West,24.2,47.2,N/A,,Overcast,260,2014-02-21 06:15:00
12:55 AM,35.6,30.9,83,29.43,10.0,West,26.5,32.2,N/A,,Overcast,260,2014-02-21 06:55:00
1:35 AM,34.9,29.5,81,29.46,10.0,WSW,24.2,44.9,N/A,,Overcast,250,2014-02-21 07:35:00
1:55 AM,34.3,29.8,84,29.47,10.0,WSW,26.5,36.8,N/A,,Overcast,250,2014-02-21 07:55:00
2:15 AM,34.3,29.1,81,29.49,10.0,WSW,26.5,39.1,N/A,Snow,Light Snow,250,2014-02-21 08:15:00
2:35 AM,33.4,29.3,85,29.50,4.0,WSW,26.5,34.5,N/A,Snow,Light Snow,240,2014-02-21 08:35:00
2:55 AM,32.5,27.7,82,29.50,5.0,West,35.7,44.9,N/A,Snow,Light Snow,260,2014-02-21 08:55:00
3:15 AM,32.0,28.2,86,29.51,4.0,WSW,20.7,33.4,N/A,Snow,Light Snow,250,2014-02-21 09:15:00
3:35 AM,32.0,28.4,87,29.52,2.5,WSW,20.7,32.2,N/A,Snow,Light Snow,240,2014-02-21 09:35:00
3:55 AM,30.9,27.3,86,29.53,1.2,West,32.2,40.3,N/A,Snow,Light Snow,260,2014-02-21 09:55:00
4:15 AM,30.4,26.6,86,29.54,2.0,West,27.6,38.0,N/A,Snow,Light Snow,260,2014-02-21 10:15:00
4:55 AM,30.0,25.7,84,29.56,7.0,West,28.8,34.5,N/A,,Overcast,260,2014-02-21 10:55:00
5:35 AM,29.3,23.9,80,29.58,5.0,West,25.3,42.6,N/A,,Haze,260,2014-02-21 11:35:00
5:55 AM,29.3,23.4,78,29.58,7.0,West,31.1,43.7,N/A,,Overcast,260,2014-02-21 11:55:00
6:15 AM,29.3,23.0,77,29.59,10.0,West,26.5,46.0,N/A,,Overcast,260,2014-02-21 12:15:00
6:35 AM,29.3,21.9,74,29.60,10.0,West,35.7,43.7,N/A,,Overcast,260,2014-02-21 12:35:00
6:55 AM,29.1,21.6,73,29.61,10.0,West,24.2,36.8,N/A,,Overcast,260,2014-02-21 12:55:00
7:15 AM,28.9,21.2,73,29.62,10.0,West,38.0,49.5,N/A,,Overcast,270,2014-02-21 13:15:00
7:35 AM,28.4,20.7,73,29.63,10.0,West,26.5,33.4,N/A,,Overcast,270,2014-02-21 13:35:00
7:55 AM,28.4,20.8,73,29.63,10.0,West,25.3,39.1,N/A,,Overcast,260,2014-02-21 13:55:00
8:15 AM,27.5,18.3,68,29.65,10.0,West,33.4,41.4,N/A,,Mostly Cloudy,260,2014-02-21 14:15:00
8:35 AM,27.3,18.5,69,29.65,10.0,West,32.2,39.1,N/A,,Scattered Clouds,270,2014-02-21 14:35:00
8:55 AM,27.3,18.3,69,29.66,10.0,West,27.6,41.4,N/A,,Mostly Cloudy,260,2014-02-21 14:55:00
9:15 AM,27.9,18.1,67,29.66,10.0,West,31.1,43.7,N/A,,Scattered Clouds,260,2014-02-21 15:15:00
9:35 AM,28.4,19.0,68,29.66,10.0,West,36.8,42.6,N/A,,Scattered Clouds,260,2014-02-21 15:35:00
9:55 AM,28.9,18.9,66,29.67,10.0,West,32.2,40.3,N/A,,Mostly Cloudy,260,2014-02-21 15:55:00
10:15 AM,28.9,18.9,66,29.68,10.0,West,31.1,49.5,N/A,,Scattered Clouds,260,2014-02-21 16:15:00
10:35 AM,29.3,19.4,67,29.70,10.0,West,36.8,47.2,N/A,,Scattered Clouds,260,2014-02-21 16:35:00
10:55 AM,30.2,19.9,66,29.70,10.0,WSW,34.5,47.2,N/A,,Scattered Clouds,250,2014-02-21 16:55:00
11:15 AM,30.2,19.4,64,29.71,10.0,WSW,36.8,44.9,N/A,,Scattered Clouds,250,2014-02-21 17:15:00
11:35 AM,30.9,20.3,65,29.72,10.0,WSW,29.9,43.7,N/A,,Clear,250,2014-02-21 17:35:00
11:55 AM,31.1,19.6,62,29.72,10.0,WSW,34.5,41.4,N/A,,Clear,250,2014-02-21 17:55:00
12:15 PM,31.6,19.0,60,29.72,10.0,WSW,31.1,40.3,N/A,,Clear,250,2014-02-21 18:15:00
12:35 PM,32.0,18.0,56,29.72,10.0,WSW,24.2,40.3,N/A,,Clear,250,2014-02-21 18:35:00
12:55 PM,32.0,16.3,52,29.72,10.0,West,32.2,44.9,N/A,,Clear,260,2014-02-21 18:55:00
1:15 PM,32.5,16.9,53,29.72,10.0,WSW,31.1,42.6,N/A,,Clear,250,2014-02-21 19:15:00
1:35 PM,33.3,17.8,53,29.72,10.0,West,23.0,33.4,N/A,,Clear,260,2014-02-21 19:35:00
1:55 PM,34.3,19.0,54,29.72,10.0,West,27.6,38.0,N/A,,Clear,260,2014-02-21 19:55:00
2:15 PM,34.7,18.1,51,29.73,10.0,WSW,24.2,33.4,N/A,,Clear,250,2014-02-21 20:15:00
2:35 PM,35.2,19.6,53,29.73,10.0,WSW,24.2,31.1,N/A,,Clear,250,2014-02-21 20:35:00
2:55 PM,35.6,19.2,51,29.74,10.0,WSW,21.9,35.7,N/A,,Clear,250,2014-02-21 20:55:00
3:15 PM,36.5,19.6,50,29.74,10.0,WSW,25.3,33.4,N/A,,Clear,250,2014-02-21 21:15:00
3:35 PM,36.7,20.8,53,29.75,10.0,West,25.3,41.4,N/A,,Clear,260,2014-02-21 21:35:00
3:55 PM,36.9,22.3,56,29.77,10.0,WSW,21.9,32.2,N/A,,Clear,250,2014-02-21 21:55:00
4:15 PM,36.9,22.8,57,29.78,10.0,WSW,19.6,27.6,N/A,,Clear,250,2014-02-21 22:15:00
4:35 PM,36.7,22.6,57,29.78,10.0,WSW,20.7,28.8,N/A,,Clear,250,2014-02-21 22:35:00
5:15 PM,36.5,24.1,61,29.80,10.0,WSW,15.0,-,N/A,,Overcast,240,2014-02-21 23:15:00
5:35 PM,36.5,24.4,62,29.80,10.0,WSW,13.8,-,N/A,,Overcast,240,2014-02-21 23:35:00
5:55 PM,36.0,24.8,64,29.80,10.0,WSW,13.8,-,N/A,,Overcast,240,2014-02-21 23:55:00
6:15 PM,35.6,24.8,65,29.81,10.0,WSW,10.4,-,N/A,,Overcast,240,2014-02-22 00:15:00
6:35 PM,35.2,24.8,66,29.82,10.0,SW,10.4,-,N/A,,Overcast,230,2014-02-22 00:35:00
6:55 PM,34.3,24.8,68,29.82,10.0,SW,9.2,-,N/A,,Mostly Cloudy,220,2014-02-22 00:55:00
7:15 PM,33.4,25.3,72,29.81,10.0,WSW,9.2,-,N/A,,Mostly Cloudy,250,2014-02-22 01:15:00
7:35 PM,34.3,25.3,70,29.81,10.0,WSW,9.2,-,N/A,,Mostly Cloudy,240,2014-02-22 01:35:00
7:55 PM,32.5,24.6,73,29.81,10.0,WSW,6.9,-,N/A,,Scattered Clouds,250,2014-02-22 01:55:00
8:15 PM,32.0,24.6,74,29.82,10.0,West,9.2,-,N/A,,Clear,260,2014-02-22 02:15:00
8:35 PM,32.0,24.6,74,29.83,10.0,West,9.2,-,N/A,,Mostly Cloudy,270,2014-02-22 02:35:00
8:55 PM,33.1,25.3,73,29.83,10.0,WNW,8.1,-,N/A,,Overcast,290,2014-02-22 02:55:00
9:15 PM,34.3,25.7,71,29.84,10.0,WNW,10.4,-,N/A,,Overcast,300,2014-02-22 03:15:00
9:35 PM,32.7,24.8,73,29.84,10.0,WNW,11.5,-,N/A,,Mostly Cloudy,300,2014-02-22 03:35:00
9:55 PM,32.0,24.3,73,29.85,10.0,WNW,11.5,-,N/A,,Scattered Clouds,300,2014-02-22 03:55:00
10:15 PM,31.6,21.2,65,29.85,10.0,WNW,12.7,-,N/A,,Mostly Cloudy,300,2014-02-22 04:15:00
10:35 PM,30.2,20.5,67,29.85,10.0,WNW,8.1,-,N/A,,Scattered Clouds,290,2014-02-22 04:35:00
10:55 PM,29.5,20.3,69,29.85,10.0,WNW,9.2,-,N/A,,Clear,300,2014-02-22 04:55:00
11:15 PM,28.2,20.3,72,29.85,10.0,West,6.9,-,N/A,,Clear,280,2014-02-22 05:15:00
11:35 PM,27.3,20.3,75,29.85,10.0,WSW,5.8,-,N/A,,Clear,250,2014-02-22 05:35:00
11:55 PM,27.1,20.3,75,29.86,10.0,West,6.9,-,N/A,,Clear,260,2014-02-22 05:55:00